Location: Izdebno
(52.6670°N, 16.2170°E)
Time: 11:01:39
(UTC+01:00)

Transit 2A - Pass Details

Date: 01 February 2023
Orbit: 591 x 964 km, 66.7° (Epoch: 21 March)

Event Time Altitude Azimuth Distance (km) Brightness Sun altitude
Rises 16:51:00 0° 180° (S) 2,989 9.4 -2.3°
Reaches altitude 10° 16:53:29 10° 168° (SSE) 2,135 8.5 -2.6°
Maximum altitude 16:57:32 27° 111° (ESE) 1,392 7.0 -3.2°
Drops below altitude 10° 17:01:57 10° 55° (NE) 2,351 7.9 -3.8°
Enters shadow 17:03:55 - 47° (NE) 3,032 8.5 -4.1°
Sets 17:04:49 0° 44° (NE) 3,356 - -4.2°
